ARG1216 SABE-SBFL

Flight info

Callsign ARG1216
Flight time N/A
Altitude 35000
Route DORVO8 DORVO UN857 ITBEB UM540 DADMO
Aircraft B738/M-SDE2E3FGHIRWXY/LB1

Departure

Time N/A
Airport Aeroparque Jorge Newbery (SABE)

Arrival

Time 2026-04-27 22:34
Airport Hercílio Luz International Airport (SBFL)
Time Latitude Longitude Altitude Speed Heading
2026-04-27 22:34 -27.67535 -48.53332 29 ft 23 kts 121°
2026-04-27 22:34 -27.67618 -48.53179 27 ft 23 kts 121°
2026-04-27 22:34 -27.67687 -48.53070 27 ft 11 kts 156°
2026-04-27 22:35 -27.67755 -48.53098 25 ft 11 kts 213°
2026-04-27 22:35 -27.67810 -48.53150 25 ft 10 kts 246°
2026-04-27 22:35 -27.67789 -48.53224 27 ft 10 kts 300°
2026-04-27 22:35 -27.67753 -48.53291 26 ft 10 kts 303°
2026-04-27 22:36 -27.67716 -48.53355 28 ft 10 kts 303°
2026-04-27 22:36 -27.67680 -48.53419 27 ft 9 kts 301°
2026-04-27 22:36 -27.67646 -48.53485 27 ft 11 kts 300°
2026-04-27 22:36 -27.67593 -48.53584 26 ft 18 kts 301°
2026-04-27 22:37 -27.67514 -48.53732 26 ft 25 kts 301°
2026-04-27 22:37 -27.67414 -48.53921 26 ft 31 kts 301°
2026-04-27 22:37 -27.67327 -48.54079 27 ft 17 kts 303°
2026-04-27 22:37 -27.67272 -48.54176 27 ft 14 kts 302°
2026-04-27 22:38 -27.67224 -48.54265 27 ft 8 kts 301°
2026-04-27 22:38 -27.67213 -48.54321 28 ft 7 kts 239°
2026-04-27 22:38 -27.67264 -48.54358 28 ft 7 kts 208°
2026-04-27 22:38 -27.67296 -48.54413 28 ft 11 kts 282°
2026-04-27 22:39 -27.67273 -48.54461 28 ft 2 kts 302°
2026-04-27 22:39 -27.67270 -48.54473 28 ft 3 kts 276°
2026-04-27 22:39 -27.67279 -48.54490 28 ft 3 kts 226°
2026-04-27 22:39 -27.67292 -48.54498 28 ft 1 kts 210°
2026-04-27 22:40 -27.67298 -48.54503 28 ft 1 kts 210°
2026-04-27 22:40 -27.67300 -48.54504 28 ft 0 kts 211°